CAPE
58 230 427 318 672 899 844 871 715 1005 1012 521 491 490 757 1009 1026 1251 1330 1167 1070 1004 693 647 669 1054 1259 1156 1076 972 979 1199 962 1267 1303 1373 1551 1617 1543 1678 1666 1671 1693
51 141 316 633 918 827 766 967 1148 1264 1380 1490 1414 1323 1309 1286 1278 1412 1317 1496 1092 977 774 1180 970 927 1161 1255 1048 987 948 1233 1177 1211 1315 1262 1394 1603 1503 1381 1308 1366 1363
6 2 288 668 799 883 1099 1005 1106 1319 1433 1486 1494 1451 1413 1329 1414 1316 1334 1357 1285 845 626 495 448 380 656 625 628 838 1153 1335 1371 1286 1157 1066 1229 1257 1001 1011 1174 1169 1143
5 61 177 810 970 1134 1263 1289 1172 1166 1462 1447 1460 1503 1146 1362 1471 344 306 340 261 480 1012 844 688 877 861 866 630 708 836 1129 1192 1130 767 826 857 1280 1384 1543 1011 890 1072
27 87 517 731 848 1268 1458 1339 1232 1252 1337 1474 1553 1485 1411 1438 799 336 1264 1361 1417 1071 898 861 703 768 605 507 475 358 466 774 1107 932 314 411 753 1001 1096 1237 1220 641 211
33 272 319 709 914 1171 1369 1432 1319 1346 1370 1512 1544 1459 1388 795 389 734 1330 1323 1023 1233 1016 610 609 591 637 346 280 400 507 717 1254 692 251 24 146 709 1092 1056 975 612 351
24 87 419 615 918 1167 1340 1306 1564 1688 1600 1637 1496 1486 889 632 698 947 961 787 1099 1051 941 807 656 725 588 507 512 354 502 1228 483 797 519 58 454 1294 1223 1178 735 463 607
9 16 160 567 947 947 930 1449 1441 1164 660 636 1137 1489 1428 1191 1372 1051 1032 1049 1368 1243 1068 905 735 513 528 462 425 304 402 615 515 323 199 23 617 1422 1548 1180 891 920 1182
14 102 140 601 796 1433 1577 1408 1384 1465 1462 1352 1203 564 1037 1407 1281 878 1097 1359 1253 1298 1113 938 780 745 643 279 197 329 481 1187 353 236 155 35 190 1225 1221 1094 569 648 883
0 51 134 338 597 1097 1461 965 896 987 800 1126 1417 1205 1111 771 803 1270 951 935 1039 1128 957 972 923 986 769 474 238 211 375 643 1002 148 234 0 0 191 801 923 766 290 616
2 7 54 163 200 424 704 1258 1110 894 917 992 1114 1117 1105 783 764 620 280 290 422 495 590 674 691 432 393 278 196 109 173 375 550 445 6 0 0 48 393 355 405 424 590
0 0 5 8 35 138 178 264 289 1035 656 437 372 389 538 830 703 818 492 789 911 1030 1266 1221 1404 1414 1427 886 779 466 201 288 307 531 323 68 0 0 190 240 107 208 604
0 0 0 0 6 34 25 20 108 656 716 682 657 679 717 627 517 599 578 506 555 780 863 948 865 885 939 951 826 280 88 121 133 351 412 327 315 157 552 606 157 150 576
0 0 0 0 5 12 5 0 86 492 473 542 705 878 1004 770 845 724 857 732 668 696 872 902 906 759 887 764 578 342 302 122 83 440 479 642 592 273 687 842 673 256 132
0 0 0 0 0 0 0 0 0 40 172 253 542 1003 759 579 427 914 929 963 953 954 1081 986 926 1029 1056 884 774 699 525 267 61 436 447 393 636 462 469 530 782 699 374
0 0 0 0 0 0 0 0 0 4 66 125 524 464 701 739 413 471 1044 871 785 810 950 882 791 866 872 820 785 859 830 762 495 239 98 107 275 543 760 725 730 813 901
0 0 0 0 0 0 0 0 0 6 41 326 671 817 971 920 858 875 756 573 379 274 612 546 515 429 308 292 432 793 930 986 849 687 497 302 299 510 769 655 699 784 743
3 0 0 0 0 0 0 0 0 0 0 83 338 731 1066 1153 1007 942 952 461 832 683 600 293 124 8 6 9 23 222 606 934 1144 1136 932 728 567 494 509 679 696 589 701
71 2 0 0 0 0 0 0 0 0 0 215 754 1137 1306 1420 1337 1233 1100 994 1109 673 430 96 0 0 0 0 0 27 441 499 511 683 817 803 656 627 579 544 725 804 672
89 8 0 0 0 0 0 0 0 7 294 937 1420 1303 1169 1324 1114 896 780 725 585 711 332 170 83 0 0 0 0 2 192 381 550 707 733 765 772 702 618 519 568 600 688
44 0 0 0 0 0 0 0 0 112 571 990 1090 1038 796 860 719 380 304 379 321 604 526 547 376 187 125 0 0 68 191 350 235 474 675 583 378 575 581 505 438 425 506
90 0 0 0 0 5 134 181 270 265 730 1018 975 955 705 524 546 248 33 0 1 174 371 931 619 467 131 23 119 308 0 0 255 247 142 96 196 375 400 313 351 398 409
108 16 0 0 0 91 287 454 641 824 1174 1016 900 836 536 546 525 358 12 0 0 0 363 1000 995 582 357 323 505 434 27 0 0 9 43 59 195 221 292 375 422 393 459
283 217 112 115 114 164 344 687 906 1001 940 868 969 909 900 532 183 0 0 0 0 0 175 680 1194 851 561 306 689 716 454 489 203 137 214 229 214 336 345 249 276 210 324
427 355 374 377 367 432 489 687 943 1118 1191 1004 923 1050 995 829 691 235 29 64 215 329 456 904 1399 1214 1041 972 806 713 811 812 723 517 100 196 339 389 332 320 237 238 311
455 447 490 509 541 751 930 1074 1101 1138 1215 1219 1047 1475 1515 1262 845 748 761 512 335 343 619 968 904 970 1073 1204 955 699 260 120 71 185 142 187 217 227 282 283 278 220 194
CIN
-3 -72 -2 -11 -2 -1 -1 -2 -5 -4 -5 -26 -32 -38 -18 -2 -1 0 0 0 0 0 -1 -1 -2 0 0 0 -3 0 0 0 -5 -1 0 0 0 0 -3 -2 0 -1 -1
-5 -2 -22 0 0 0 0 0 0 0 0 0 0 0 0 0 0 0 0 0 0 0 -1 0 0 0 0 0 0 -1 -1 0 0 0 0 -5 0 0 0 0 -2 -2 0
-47 -64 -28 0 0 0 0 -1 0 0 0 0 0 0 0 0 0 0 0 0 0 -2 -5 -15 -9 -30 -1 -14 -28 -3 0 0 0 -3 -5 -11 -5 0 -8 -6 0 -1 -1
-13 -8 -8 0 0 0 0 -1 -2 -1 0 0 0 0 -1 0 0 -29 -32 -25 -42 -22 0 -1 -3 0 0 -4 -23 -20 -7 0 -2 -1 -24 -12 -6 0 0 0 -13 -16 -7
-27 -11 -3 -2 -3 0 0 0 -1 -1 0 0 0 0 -1 0 -1 -31 0 0 -1 -1 -3 -3 -6 -8 -11 -14 -21 -37 -33 -14 -3 -3 -34 -44 -26 -5 -3 0 -3 -48 -106
-13 -5 -6 -1 0 0 0 0 0 0 0 0 0 0 0 -2 -15 0 -2 0 0 -1 -10 -29 -23 -21 -15 -26 -35 -37 -27 -19 -6 -17 -54 -214 -97 -29 -8 -7 -7 -14 -66
-38 -31 -3 -5 -4 0 0 -2 0 0 0 0 0 0 0 -1 0 0 -1 -1 -2 -6 -11 -20 -24 -19 -31 -23 -21 -32 -30 -13 -51 -37 -45 -176 -43 0 -5 -10 -26 -59 -19
-60 -16 -17 -4 -5 -6 -15 0 0 -2 -48 -14 -4 0 -1 -1 -1 0 0 0 0 -3 -14 -15 -20 -32 -25 -27 -32 -43 -37 -34 -47 -70 -115 -255 -26 0 0 0 -32 -18 -1
-40 -27 -14 -3 -4 0 0 -1 -1 0 0 0 -1 -19 -4 0 0 0 -1 -1 -6 -4 -10 -17 -27 -28 -25 -24 -29 -39 -46 -37 -62 -71 -102 -202 -137 -7 -2 -10 -50 -50 -19
-29 -49 -45 -17 -10 -4 -1 -4 -12 -10 -20 -6 0 -1 0 -7 -10 -3 -11 -19 -21 -14 -20 -17 -26 -28 -38 -43 -33 -43 -45 -55 -48 -96 -81 0 0 -118 -33 -30 -37 -106 -59
-76 -93 -60 -48 -60 -31 -13 -1 -1 -15 -16 -5 -8 -9 -9 -21 -15 -20 -80 -71 -44 -40 -36 -40 -38 -51 -56 -61 -62 -77 -63 -59 -46 -87 -66 0 0 -145 -90 -103 -91 -77 -48
0 0 -108 -66 -111 -90 -80 -75 -77 -19 -36 -43 -56 -69 -64 -33 -33 -28 -35 -21 -19 -21 -17 -23 -20 -31 -31 -46 -51 -60 -61 -54 -61 -77 -92 -104 0 0 -111 -111 -144 -129 -51
0 0 0 0 -175 -168 -164 -215 -152 -51 -54 -55 -60 -63 -60 -61 -60 -59 -60 -45 -41 -33 -42 -48 -46 -46 -48 -53 -48 -62 -87 -78 -84 -75 -73 -66 -72 -90 -78 -79 -112 -123 -74
0 0 0 0 -228 -229 -254 0 -159 -63 -69 -76 -72 -62 -54 -58 -52 -49 -48 -50 -52 -62 -44 -47 -50 -63 -47 -50 -64 -66 -68 -103 -112 -59 -53 -49 -52 -71 -54 -34 -56 -99 -123
0 0 0 0 0 -56 -20 0 0 -200 -130 -119 -77 -53 -65 -71 -88 -49 -39 -44 -45 -48 -42 -32 -35 -32 -32 -38 -43 -51 -45 -59 -128 -50 -53 -57 -48 -52 -48 -44 -39 -54 -87
0 0 0 0 0 0 -90 0 -91 -156 -186 -146 -76 -78 -65 -67 -89 -82 -35 -35 -44 -51 -37 -34 -53 -71 -71 -77 -68 -63 -64 -58 -59 -111 -145 -124 -64 -44 -37 -34 -37 -35 -42
0 0 0 0 0 0 -24 -200 -14 -253 -197 -135 -98 -83 -66 -62 -58 -47 -47 -43 -51 -74 -52 -93 -137 -132 -130 -129 -117 -85 -58 -39 -46 -49 -83 -121 -104 -44 -25 -28 -35 -37 -32
-243 0 0 0 0 0 0 0 0 0 -26 -170 -113 -95 -81 -72 -81 -99 -55 -72 -52 -63 -87 -174 -222 -204 -204 -195 -196 -131 -88 -63 -61 -57 -53 -70 -90 -81 -56 -36 -25 -33 -29
-378 -223 0 0 0 0 0 0 0 0 0 -148 -124 -91 -77 -70 -81 -69 -57 -49 -44 -82 -92 -163 0 0 0 0 0 -228 -146 -120 -114 -105 -108 -94 -86 -78 -75 -56 -36 -29 -32
-419 -531 0 0 0 0 0 0 0 -196 -175 -115 -78 -103 -121 -107 -100 -88 -65 -78 -95 -70 -77 -196 -219 0 0 0 0 -31 -171 -139 -150 -151 -134 -137 -124 -91 -94 -97 -81 -67 -49
-452 0 0 0 0 0 0 0 0 -226 -116 -84 -111 -117 -128 -125 -116 -109 -133 -126 -147 -101 -121 -114 -141 -207 -181 0 0 -194 -163 -146 -169 -141 -115 -118 -124 -105 -105 -99 -133 -140 -106
-407 0 0 0 0 -78 -298 -247 -212 -182 -106 -121 -151 -144 -175 -182 -135 -158 -200 0 -234 -179 -174 -121 -170 -148 -219 -59 -142 -127 0 0 -139 -123 -130 -130 -109 -108 -103 -108 -129 -142 -130
-420 -285 0 0 0 -336 -243 -187 -161 -139 -102 -125 -126 -129 -136 -147 -161 -189 -87 0 0 0 -155 -99 -114 -153 -125 -135 -129 -85 -60 0 0 -100 -210 -192 -148 -123 -103 -101 -108 -100 -105
-440 -461 -434 -394 -353 -292 -236 -160 -153 -107 -88 -90 -70 -90 -105 -168 -221 -1 0 0 0 0 -186 -123 -81 -97 -107 -93 -67 -67 -69 -39 -86 -286 -208 -201 -169 -134 -107 -103 -80 -105 -95
-434 -400 -364 -300 -237 -182 -158 -139 -96 -89 -89 -104 -89 -68 -70 -103 -135 -173 -235 -215 -161 -141 -124 -68 -39 -38 -44 -36 -34 -36 -26 -18 -15 -11 -422 -312 -144 -123 -116 -106 -96 -86 -75
-417 -341 -286 -237 -220 -174 -134 -105 -87 -88 -72 -57 -65 -49 -46 -71 -106 -127 -143 -149 -160 -100 -63 -41 -26 -19 -24 -30 -29 -36 -49 -80 -163 -68 -220 -304 -248 -220 -125 -101 -120 -102 -79
Wind_Speed
4 8 8 10 12 14 16 17 15 16 18 19 20 21 19 22 25 23 24 26 29 29 29 30 30 30 30 31 30 30 29 29 29 28 28 28 27 25 25 24 23 19 17
10 5 9 10 13 17 18 17 15 14 17 17 16 19 22 24 23 23 23 25 28 29 29 30 30 30 30 31 30 29 28 29 28 28 27 27 27 25 24 24 23 23 22
3 8 9 12 13 16 18 16 13 13 15 15 15 16 19 19 21 22 22 24 26 28 28 29 29 29 29 30 30 29 28 27 27 27 26 25 24 24 24 24 24 23 22
8 26 20 15 14 15 16 15 13 12 13 14 13 14 18 19 19 21 24 26 26 26 27 28 29 29 29 30 29 29 27 26 26 25 25 24 24 25 24 24 24 23 22
4 17 17 18 15 13 13 14 11 11 12 15 13 15 15 16 19 22 23 25 24 24 26 27 28 28 27 27 25 24 23 22 20 20 21 22 22 23 23 23 23 23 23
13 14 16 10 15 13 13 13 12 10 10 11 14 13 12 15 20 23 22 20 21 22 23 24 26 25 25 24 23 21 19 18 18 18 19 20 21 22 23 23 22 21 22
17 13 9 8 21 16 14 14 13 10 10 8 10 10 11 12 13 19 16 21 22 21 22 22 23 22 22 20 19 19 19 17 18 19 19 19 20 20 21 21 21 21 21
18 27 14 16 25 18 19 19 17 13 6 8 9 9 9 9 11 13 13 11 7 13 13 13 14 17 17 18 17 16 14 15 18 19 19 18 18 19 19 19 20 20 20
15 16 2 8 18 27 19 14 16 18 11 6 7 9 10 10 12 10 10 12 12 11 12 13 14 14 15 14 14 13 13 12 17 17 17 16 17 17 18 18 18 19 19
23 25 7 12 25 22 13 11 13 15 14 5 6 8 10 11 12 14 14 14 13 13 14 14 15 15 15 15 14 14 14 14 13 14 14 15 15 16 16 18 18 17 18
29 26 26 23 7 2 3 9 5 11 12 7 7 8 9 11 12 15 15 14 14 14 15 16 16 16 17 16 17 17 16 15 13 13 14 13 13 14 15 15 16 17 16
31 29 30 26 24 10 7 10 8 9 8 9 10 11 12 12 13 13 14 15 15 15 16 16 18 19 18 19 19 20 19 10 9 10 11 13 12 12 13 13 13 14 16
30 31 31 29 25 18 21 11 10 10 12 11 12 12 13 13 14 15 15 16 16 17 17 17 18 20 22 22 22 22 21 18 10 8 8 9 12 11 12 13 12 13 13
30 31 29 29 26 24 24 19 14 14 15 12 12 13 14 15 16 16 17 17 17 18 19 20 21 21 21 22 24 24 24 24 19 9 7 5 6 9 9 11 12 12 13
29 30 30 31 28 25 24 21 19 16 16 16 16 15 15 15 11 17 18 17 18 19 19 20 21 23 22 20 21 24 25 24 21 11 7 2 2 5 8 9 12 12 12
28 30 30 31 29 27 26 23 20 18 17 17 17 17 14 11 11 11 8 20 21 21 21 21 13 11 19 21 21 19 21 22 18 16 15 12 3 3 6 7 10 13 13
27 30 31 31 29 28 27 25 22 19 18 18 16 16 15 13 11 9 9 9 11 6 14 13 6 9 5 13 15 9 3 25 24 19 19 20 23 22 8 11 14 17 16
27 29 31 31 29 28 27 25 22 20 18 17 16 16 16 15 14 14 11 9 16 12 12 11 3 5 6 9 13 13 12 15 19 22 21 11 23 25 24 19 9 15 21
27 28 29 29 28 27 26 24 22 20 19 18 17 16 18 10 8 8 11 9 11 11 12 8 10 6 6 12 15 16 17 17 17 13 10 6 2 5 18 19 18 27 23
26 27 27 28 27 26 24 23 21 20 19 16 15 16 12 8 7 8 6 12 16 10 14 7 11 7 5 6 12 9 12 13 14 15 18 9 13 7 4 7 7 14 26
24 25 26 26 25 23 22 21 19 18 16 16 14 10 10 6 6 7 6 5 10 7 7 6 7 6 5 10 7 7 3 3 8 4 20 29 31 12 17 18 19 12 11
24 24 24 23 23 22 20 18 15 14 14 14 15 15 10 6 4 4 7 6 8 9 11 8 7 8 10 13 15 24 24 25 22 27 32 33 34 34 33 29 28 26 21
24 24 23 23 22 20 18 15 13 11 15 15 12 13 16 15 6 7 11 10 12 11 9 10 7 7 5 19 21 22 27 28 37 25 29 28 32 35 37 38 36 35 31
24 24 22 21 19 16 14 13 13 11 13 13 22 22 25 25 23 20 21 22 22 19 15 9 7 7 11 13 22 18 17 26 38 45 27 31 30 30 34 34 38 39 36
19 19 19 17 14 13 12 11 9 10 9 3 6 27 27 26 26 22 21 24 26 28 1 7 9 11 12 16 21 27 29 29 29 38 51 47 37 32 29 29 32 37 39
19 15 14 13 11 9 9 7 7 6 5 1 21 26 29 28 24 22 26 27 28 32 16 6 13 15 15 21 25 29 30 33 37 37 41 47 48 43 33 30 30 32 35
Wind_Direction
190 173 84 75 72 73 73 74 74 73 73 73 74 74 70 73 78 74 73 78 89 85 88 96 102 103 104 101 107 109 110 109 106 109 107 107 118 130 132 134 143 170 183
185 87 74 74 72 73 74 75 76 73 71 69 67 70 75 78 75 73 73 79 87 92 88 93 96 98 104 104 109 112 113 110 108 110 112 113 119 126 134 137 142 146 152
126 108 76 77 75 74 74 73 71 68 66 65 63 64 69 69 70 70 72 77 82 90 92 96 96 100 101 102 109 112 116 115 113 110 110 117 125 124 129 135 135 144 158
188 102 86 81 79 75 73 71 68 63 61 61 57 56 64 66 63 68 79 88 88 87 92 96 100 97 98 102 103 109 118 116 114 115 110 117 121 125 127 127 131 139 143
132 88 87 86 81 75 71 68 62 59 59 62 54 56 54 54 61 75 75 84 83 78 89 94 101 103 98 100 112 118 126 128 132 126 123 117 121 127 132 136 133 131 136
82 84 88 85 84 76 71 64 61 53 50 50 54 49 41 46 67 79 76 66 68 72 79 83 100 112 107 107 108 125 137 140 144 142 126 122 124 124 128 134 139 143 141
92 85 79 82 94 82 71 67 63 55 43 32 37 34 30 36 36 66 50 69 75 77 76 83 99 129 126 128 130 131 129 135 134 135 134 130 128 130 129 134 141 143 145
96 174 206 91 103 86 83 78 69 57 28 22 22 20 20 12 26 39 36 19 320 198 196 199 194 171 157 152 147 149 163 147 110 114 123 132 141 137 134 133 137 147 152
207 204 183 94 93 108 85 67 64 66 38 6 355 15 14 14 23 6 11 20 5 244 224 222 218 216 210 202 188 190 182 176 125 116 120 129 142 144 154 145 143 145 151
191 183 215 201 110 100 62 47 51 50 48 340 342 353 3 0 15 36 35 28 19 309 266 257 251 241 236 228 232 214 206 201 162 145 142 133 140 144 145 161 157 152 157
157 172 187 191 218 2 297 226 281 31 35 283 307 313 328 341 354 24 28 19 0 320 297 289 265 256 249 244 250 242 230 200 184 149 148 148 135 145 150 147 160 164 155
160 180 179 192 193 238 270 235 255 265 305 282 285 290 288 305 323 324 331 8 345 317 288 316 287 260 254 257 263 264 262 151 115 120 158 160 143 144 151 152 148 156 169
157 168 177 182 192 214 198 246 258 268 266 291 275 265 282 335 339 347 358 336 332 326 335 337 341 318 293 281 280 286 321 336 177 118 94 135 160 155 159 164 158 160 163
161 169 183 190 198 187 178 212 243 248 231 277 304 295 308 344 353 348 342 335 341 342 334 334 327 324 326 319 302 299 304 310 328 18 50 97 140 163 166 175 174 172 177
163 170 178 185 192 195 183 195 204 228 222 225 233 233 213 228 13 356 346 350 341 333 335 342 344 323 325 337 333 324 311 315 326 356 9 113 129 179 181 184 189 187 188
162 167 173 179 184 191 191 192 210 216 219 223 230 226 220 178 169 165 102 315 316 323 334 346 18 14 339 333 335 340 329 326 337 340 337 339 327 226 203 199 202 203 200
157 164 169 173 176 178 184 189 203 211 212 216 217 218 219 210 198 172 191 181 201 118 39 38 83 48 68 218 227 211 27 320 321 332 328 322 317 313 307 218 218 217 213
148 155 165 170 173 175 178 183 190 199 205 215 218 223 232 230 204 202 186 126 0 55 42 38 156 178 178 192 226 226 221 231 239 244 239 332 313 306 307 310 244 223 221
145 150 159 167 172 174 179 186 196 204 210 217 220 221 232 191 145 163 180 156 59 54 57 189 228 137 193 226 225 233 239 238 237 231 225 219 232 279 316 310 306 301 238
146 148 155 161 168 172 176 184 193 198 203 206 209 217 198 146 79 60 68 16 354 54 41 172 219 191 158 205 220 213 232 235 233 232 239 352 348 346 312 315 300 305 297
145 146 152 155 161 161 165 169 177 188 197 200 203 196 186 104 79 45 35 71 32 54 53 118 162 164 158 61 78 59 91 143 216 76 347 316 312 345 338 332 326 324 313
150 153 153 157 159 161 162 162 164 172 190 197 205 216 189 156 136 133 105 99 71 80 55 91 110 71 58 43 28 1 357 350 349 334 314 311 308 304 305 318 313 311 315
156 157 157 159 161 159 158 153 159 162 191 203 194 204 230 242 160 102 190 27 45 38 61 39 64 56 53 12 5 1 350 343 328 342 333 331 322 314 305 297 296 297 302
160 161 160 160 158 156 149 152 161 168 186 195 237 252 271 290 313 332 315 295 309 340 5 38 38 23 11 2 358 360 353 342 327 310 336 329 326 323 316 312 302 297 300
159 159 158 152 148 153 157 163 165 179 177 145 19 278 277 290 297 316 321 309 304 294 16 10 3 359 352 347 346 343 342 340 337 324 295 310 319 320 318 316 312 306 299
165 154 146 145 150 143 152 158 175 186 200 260 316 302 282 301 316 329 317 312 311 296 247 306 341 339 339 338 336 335 335 334 331 328 322 313 308 311 315 314 312 310 305